Weather in Anahim Lake

Canada     52°28′13″N   125°18′42″W
temp.,
°C
wind,
m/s
gust,
m/s
humid.,
%
clouds,
%
prec.,
mm/h
press.,
hPa
HPBL,
m
15 june, tue
tue1523:00+7nnw127936 0.1 101440
02:00+4wnw119519 1.0 101529
05:00+4w22977 1.1 101645
08:00+8wsw237538 0.0 1015682
11:00+13w33485 0.1 10141520
14:00+17w3429100 0.1 10123091
17:00+15wnw4435100 0.3 10142311
20:00+13wnw564839 0.1 10161018
16 june, wed
wed1623:00+6w238439 0.7 102068
02:00+4wsw1193100 0.1 102319
05:00+3ese00945 0.1 102410
08:00+8wsw13702 0.0 1023519
11:00+14w23405 0.0 10211559
14:00+17w44285 0.0 10202336
17:00+17wnw442818 0.0 10192396
20:00+14nw45405 0.0 1019798
17 june, thu
thu1723:00+7nnw116784 0.0 102111
02:00+5e01775 0.0 102210
05:00+4ene118186 0.0 102311
08:00+10s01585 0.0 1021370
11:00+17ssw12375 0.0 10191413
14:00+20wnw143086 0.0 10162670
17:00+20sw3430100 0.0 10142840
20:00+15wnw4555100 0.0 1016568
18 june, fri
fri1823:00+9w2680100 0.0 1019178
02:00+8nw1285100 0.0 101960
05:00+6wnw1195100 0.0 102027
08:00+10w237196 0.0 1018598
11:00+14sw334910 0.0 10161300
14:00+19wsw343255 0.0 10142087
17:00+19wnw543299 0.0 10132050
20:00+15nw4646100 0.0 1013575
19 june, sat
sat1923:00+10nw2266100 0.0 101441
02:00+10nw1269100 0.0 101453
05:00+8nw2388100 0.6 1014173
08:00+8nw1293100 1.9 1014171
11:00+8nw2490100 4.1 1014407
14:00+7nw3592100 2.8 1016623
17:00+10wnw2680100 3.6 1016695
20:00+12nw257540 0.9 1018601